#timestamp,LO_Frequency,Hit,StdDev 
1459458015.3,286047007.8,N
1459458035.1,286047010.5,Y
1459458055.9,286047004.8,P
1459458075.7,286047005.8,P
1459458095.5,286047006.8,P
1459458115.4,286047012.3,Y
1459458135.2,286047003.5,P
1459458155.0,286047007.6,P
1459458155.9,286047007.6,P
1459458175.8,286047008.6,Y
1459458195.6,286047002.4,P
1459458215.4,286047004.1,N
1459458235.3,286047005.8,P
1459458255.1,286047005.0,Y
1459458275.8,286047002.7,P
1459458295.7,286047002.7,N
1459458315.5,286046999.4,N
1459458335.3,286047001.2,N
1459458355.2,286047002.6,N
1459458375.0,286047001.5,N
1459458375.9,286047001.5,N
1459458395.7,286047002.8,N
1459458415.6,286047002.3,N
1459458435.4,286046999.7,N
1459458455.2,286047003.9,N
1459458475.1,286046999.8,N
1459458476.0,286046999.8,N
1459458495.8,286047003.9,N
1459458515.6,286047002.3,N
1459458535.5,286047000.3,N
1459458555.3,286047000.9,N
1459458575.1,286047000.6,N
1459458595.9,286047003.0,N
1459458615.7,286047005.5,Y
1459458635.5,286047000.7,P
1459458655.4,286047000.5,N
1459458675.2,286046996.5,P
1459458695.0,286046997.8,N
1459458695.9,286046997.8,N
1459458715.8,286046997.1,N
1459458735.6,286046998.9,N
1459458755.4,286046995.5,N
1459458775.2,286046996.0,N
1459458795.1,286046995.8,N
1459458796.0,286046995.8,N
1459458815.8,286046996.3,N
1459458835.6,286046997.6,N
1459458855.5,286046999.5,N
1459458875.3,286047001.2,N
1459458895.1,286047002.8,N
1459458915.9,286046998.5,N
1459458935.7,286046999.3,N
1459458955.5,286046999.0,N
1459458975.4,286047000.9,N
1459458995.2,286047002.1,N
1459459015.0,286047004.8,N
1459459015.9,286047004.8,N
1459459035.8,286047006.0,N
1459459055.6,286047003.8,N
1459459075.4,286047003.5,N
1459459095.2,286047000.2,N
1459459115.1,286047002.2,N
1459459116.0,286047002.2,N
1459459135.8,286047001.3,N
1459459155.6,286047001.5,N
1459459175.5,286047004.3,N
1459459195.3,286047000.4,N
1459459215.1,286047000.3,N
1459459235.9,286046996.6,N
1459459255.7,286046997.5,N
1459459275.5,286046995.1,N
1459459295.4,286046997.7,N
1459459315.2,286046999.0,N
1459459335.0,286046997.0,N
1459459335.9,286046997.0,N
1459459355.8,286046995.5,N
1459459375.6,286046997.6,N
1459459395.4,286046996.5,N
1459459415.3,286046998.4,N
1459459435.1,286046998.8,N
1459459436.0,286046998.8,N
1459459455.8,286046998.4,N
1459459475.7,286047001.1,N
1459459495.5,286046997.1,N
1459459515.3,286046999.4,N
1459459535.1,286046997.3,N
1459459555.9,286046994.5,N
1459459575.7,286046995.2,N
1459459595.5,286046995.6,N
1459459615.4,286046995.3,N
1459459635.2,286046995.2,N
1459459655.0,286046991.8,Y
1459459656.0,286046991.8,P
1459459675.8,286046996.6,N
1459459695.6,286046994.9,N
1459459715.4,286046995.1,N
1459459735.3,286046993.6,Y
1459459755.1,286046995.0,P
1459459775.8,286046999.0,P
1459459795.7,286046998.2,N
1459459815.5,286047000.7,N
1459459835.3,286046999.8,N
1459459855.2,286046998.4,N
1459459875.9,286047001.5,N
1459459895.7,286047002.8,N
1459459915.6,286047000.0,N
1459459935.4,286047001.9,N
1459459955.2,286047002.8,N
1459459975.1,286047002.5,N
1459459976.0,286047002.5,N
1459459995.8,286047001.4,N
1459460015.6,286047003.3,N
1459460035.5,286047001.3,N
1459460055.3,286047002.6,N
1459460075.1,286047001.2,N
1459460095.8,286047004.4,N
1459460115.7,286047001.3,N
1459460135.5,286047003.9,N
1459460155.3,286047002.7,N
1459460175.2,286047001.1,N
1459460195.9,286047000.6,N
1459460215.7,286046998.1,N
1459460235.6,286047001.2,N
1459460255.4,286047002.7,N
1459460275.2,286046998.5,N
1459460295.1,286047004.4,N
1459460296.0,286047004.4,N
1459460315.8,286047001.7,N
1459460335.6,286047003.2,N
1459460355.5,286047003.1,N
1459460375.3,286047003.6,N
1459460395.1,286047002.3,N
1459460415.8,286047001.3,N
1459460435.7,286047001.7,N
1459460455.5,286047003.9,N
1459460475.3,286047001.8,N
1459460495.2,286047003.0,N
1459460515.9,286047004.7,Y
1459460535.7,286047002.1,P
1459460555.6,286047002.4,P
1459460575.4,286047000.1,N
1459460595.2,286047002.1,N
1459460615.1,286047000.4,N
1459460616.0,286047000.4,N
1459460635.8,286046998.7,N
1459460655.6,286046998.5,N
1459460675.5,286047001.1,N
1459460695.3,286047002.4,N
1459460715.1,286047004.0,N
1459460735.9,286047000.7,N
1459460755.7,286047001.6,N
1459460775.5,286047003.4,N
1459460795.3,286047002.2,N
1459460815.2,286047001.2,N
1459460835.0,286047000.2,N
1459460835.9,286047000.2,N
1459460855.7,286046999.4,N
1459460875.6,286046999.4,N
1459460895.4,286046998.0,N
1459460915.2,286046997.8,N
1459460935.1,286046995.1,N
1459460936.0,286046995.1,N
1459460955.8,286046998.0,N
1459460975.6,286046995.3,N
1459460995.5,286046995.8,N
1459461015.3,286046995.6,N
1459461035.1,286046994.3,N
1459461055.9,286046992.4,N
1459461075.7,286046990.4,Y
1459461095.5,286046994.2,P
1459461115.4,286046991.9,P
1459461135.2,286046993.3,N
1459461155.0,286046994.7,N
1459461155.9,286046994.7,N
1459461175.8,286046992.5,Y
1459461195.6,286046995.3,P
1459461215.4,286046995.0,P
1459461235.3,286046994.2,P
1459461255.1,286046993.6,Y
1459461256.0,286046993.6,P
1459461275.8,286047000.6,N
1459461295.7,286046996.9,N
1459461315.5,286046998.6,N
1459461335.3,286046997.5,N
1459461355.2,286046996.5,N
1459461375.9,286046996.8,N
1459461395.7,286047000.3,N
1459461415.5,286046998.2,N
1459461435.4,286046997.4,N
1459461455.2,286046999.3,N
1459461475.0,286046997.9,N
1459461475.9,286046997.9,N
1459461495.8,286046996.8,N
1459461515.6,286047001.1,N
1459461535.4,286047002.7,N
1459461555.3,286047000.8,N
1459461575.1,286047000.9,N
1459461576.0,286047000.9,N
1459461595.8,286046999.2,N
